Muscle Shoals, AL

3:49 AM CST on January 17, 2017 (GMT -0600)
Northwest Alabama Regional

Weather History for KMSL - May, 2013

Change the Weather History Date:

Friday, May 3, 2013

  Actual Average Record
Temperature  
Mean Temperature 61 °F 66 °F  
Max Temperature 77 °F 78 °F 91 °F (1902)
Min Temperature 45 °F 55 °F 36 °F (1918)
Degree Days  
Heating Degree Days 4 2  
Month to date heating degree days 4 6  
Since 1 July heating degree days 2903 3079  
Cooling Degree Days 0 3  
Month to date cooling degree days 9 9  
Year to date cooling degree days 63 74  
Growing Degree Days 10 (Base 50)    
Moisture  
Dew Point 50 °F    
Average Humidity 71    
Maximum Humidity 92    
Minimum Humidity 50    
Precipitation  
Precipitation 1.19 in 0.15 in 2.21 in (2002)
Month to date precipitation 1.19 0.46  
Year to date precipitation 21.96 18.84  
Snow  
Snow 0.00 in - - ()
Month to date snowfall 0.0  
Since 1 July snowfall T  
Snow Depth 0.00 in    
Sea Level Pressure  
Sea Level Pressure 29.95 in    
Wind  
Wind Speed 12 mph (SSW)    
Max Wind Speed 28 mph    
Max Gust Speed 33 mph    
Visibility 7 miles    
Events Rain    
T = Trace of Precipitation, MM = Missing Value Source: NWS Daily Summary

Daily Weather History Graph

Daily Weather History Graph

Search for Another Location

Airport or City:

Trip Planner

Search our weather history database for the weather conditions in past years. The results will help you decide how hot, cold, wet, or windy it might be!

Date:

Astronomy

May. 03, 2013 Rise Set
Actual Time 5:57 AM CDT 7:37 PM CDT
Civil Twilight 5:30 AM CDT 8:04 PM CDT
Nautical Twilight 4:58 AM CDT 8:37 PM CDT
Astronomical Twilight 4:23 AM CDT 9:11 PM CDT
Moon 2:06 AM CDT (5/3) 1:45 PM CDT (5/3)
Length of Visible Light 14h 33m
Length of Day
13h 39m
Last Quarter, 37% of the Moon is Illuminated
May 3
Last Quarter
May 9
New
May 17
First Quarter
May 24
Full
May 31
Last Quarter

Hourly Weather History & Observations

Time (CDT) Temp. Windchill Dew Point Humidity Pressure Visibility Wind Dir Wind Speed Gust Speed Precip Events Conditions
12:53 AM 62.1 °F - 55.9 °F 80% 30.04 in 10.0 mi ESE 4.6 mph - N/A   Scattered Clouds
1:53 AM 62.1 °F - 55.9 °F 80% 30.02 in 10.0 mi ESE 5.8 mph - N/A   Overcast
3:53 AM 62.1 °F - 55.9 °F 80% 30.00 in 10.0 mi ESE 6.9 mph - N/A   Mostly Cloudy
4:53 AM 62.1 °F - 55.0 °F 78% 29.99 in 10.0 mi ESE 8.1 mph - N/A   Scattered Clouds
5:53 AM 61.0 °F - 55.0 °F 81% 29.99 in 10.0 mi ESE 5.8 mph - N/A   Partly Cloudy
6:53 AM 62.1 °F - 55.0 °F 78% 29.99 in 10.0 mi ESE 5.8 mph - N/A   Clear
7:53 AM 63.0 °F - 55.9 °F 78% 29.98 in 10.0 mi ESE 5.8 mph - N/A   Clear
8:53 AM 66.0 °F - 55.9 °F 70% 29.97 in 10.0 mi SE 13.8 mph 20.7 mph N/A   Scattered Clouds
9:19 AM 68.0 °F - 57.2 °F 68% 29.97 in 10.0 mi SE 17.3 mph 28.8 mph N/A   Mostly Cloudy
9:28 AM 68.0 °F - 55.4 °F 64% 29.97 in 10.0 mi SE 12.7 mph 28.8 mph N/A   Mostly Cloudy
9:53 AM 69.1 °F - 57.0 °F 65% 29.96 in 10.0 mi SE 20.7 mph 28.8 mph N/A   Overcast
10:08 AM 69.8 °F - 55.4 °F 60% 29.96 in 10.0 mi SE 18.4 mph 27.6 mph N/A   Overcast
10:38 AM 69.8 °F - 55.4 °F 60% 29.96 in 10.0 mi SE 15.0 mph 27.6 mph N/A   Mostly Cloudy
10:53 AM 71.1 °F - 55.9 °F 59% 29.95 in 10.0 mi SE 19.6 mph 24.2 mph N/A   Mostly Cloudy
11:53 AM 72.0 °F - 57.0 °F 59% 29.93 in 10.0 mi SE 13.8 mph 23.0 mph N/A   Mostly Cloudy
12:53 PM 75.0 °F - 57.0 °F 53% 29.90 in 10.0 mi SE 18.4 mph 28.8 mph N/A   Mostly Cloudy
1:53 PM 75.9 °F - 55.9 °F 50% 29.87 in 10.0 mi SE 19.6 mph 29.9 mph N/A   Mostly Cloudy
2:53 PM 73.9 °F - 55.0 °F 52% 29.84 in 10.0 mi SE 17.3 mph 29.9 mph N/A   Overcast
3:53 PM 72.0 °F - 54.0 °F 53% 29.82 in 10.0 mi SSE 19.6 mph 28.8 mph N/A   Overcast
4:53 PM 69.1 °F - 55.9 °F 63% 29.82 in 7.0 mi SSE 15.0 mph 26.5 mph 0.00 in Rain Light Rain
5:53 PM 66.0 °F - 57.0 °F 73% 29.83 in 8.0 mi SE 15.0 mph 25.3 mph 0.01 in Rain Light Rain
6:22 PM 57.2 °F - 53.6 °F 88% 29.89 in 1.8 mi West 25.3 mph 32.2 mph 0.08 in Rain Heavy Rain
6:28 PM 53.6 °F - 50.0 °F 88% 29.89 in 1.2 mi West 18.4 mph 32.2 mph 0.14 in Rain Heavy Rain
6:33 PM 53.6 °F - 50.0 °F 88% 29.90 in 1.2 mi WNW 18.4 mph - 0.17 in Rain Heavy Rain
6:45 PM 51.8 °F - 48.2 °F 88% 29.90 in 2.0 mi West 12.7 mph - 0.24 in Rain Heavy Rain
6:53 PM 51.1 °F - 48.0 °F 89% 29.90 in 2.5 mi WNW 13.8 mph 20.7 mph 0.27 in Rain Rain
7:01 PM 51.8 °F - 46.4 °F 82% 29.91 in 4.0 mi WNW 15.0 mph - 0.01 in Rain Rain
7:37 PM 48.2 °F - 44.6 °F 87% 29.93 in 6.0 mi WNW 15.0 mph - 0.03 in Rain Light Rain
7:53 PM 48.0 °F - 44.1 °F 86% 29.94 in 6.0 mi WNW 17.3 mph 24.2 mph 0.04 in Rain Light Rain
8:53 PM 46.0 °F 40.6 °F 43.0 °F 89% 29.97 in 5.0 mi West 11.5 mph - 0.09 in Rain Rain
9:18 PM 46.4 °F 42.4 °F 42.8 °F 87% 29.98 in 6.0 mi WNW 8.1 mph - 0.09 in Rain Light Rain
9:32 PM 46.4 °F 42.9 °F 42.8 °F 87% 30.00 in 4.0 mi WNW 6.9 mph - 0.13 in Rain Heavy Rain
9:53 PM 45.0 °F 40.6 °F 42.1 °F 90% 29.97 in 4.0 mi NNW 8.1 mph - 0.22 in Rain Rain
10:16 PM 44.6 °F 39.2 °F 42.8 °F 93% 29.98 in 3.0 mi NW 10.4 mph - 0.11 in Rain Heavy Rain
10:22 PM 44.6 °F 39.7 °F 42.8 °F 93% 29.98 in 4.0 mi NNW 9.2 mph - 0.13 in Rain Heavy Rain
10:36 PM 44.6 °F 39.2 °F 42.8 °F 93% 29.98 in 4.0 mi WNW 10.4 mph - 0.18 in Rain Rain
10:53 PM 45.0 °F 41.2 °F 42.1 °F 90% 29.99 in 3.0 mi West 6.9 mph - 0.25 in Rain Heavy Rain
10:58 PM 44.6 °F 41.4 °F 42.8 °F 93% 30.00 in 2.5 mi West 5.8 mph - 0.02 in Rain Heavy Rain
11:16 PM 44.6 °F 41.4 °F 42.8 °F 93% 29.99 in 4.0 mi NW 5.8 mph - 0.10 in Rain Rain
11:48 PM 44.6 °F 39.2 °F 41.0 °F 87% 29.98 in 5.0 mi NW 10.4 mph - 0.22 in Rain Rain
11:53 PM 45.0 °F 38.9 °F 41.0 °F 86% 29.98 in 6.0 mi WNW 12.7 mph - 0.23 in Rain Rain